{"data":{"norad_id":55574,"intl_designator":"2023-020F","name":"STARLINK-5747","alt_names":[],"object_type":"PAYLOAD","status":"ACTIVE","operator":null,"country":"US","launch_date":"2023-02-12","launch_site_code":"AFETR","launch_vehicle":null,"mission":null,"orbit_class":"UNKNOWN","rcs_meters":null,"size_class":null,"mass_kg":null,"dimensions":null,"purposes":["comms"],"wikipedia_slug":null,"has_3d_model":false,"image_url":null,"decayed_at":null,"tle_current":{"epoch":"2026-05-24T19:58:40.557504Z","epoch_age_seconds":89628,"freshness":"FRESH","line1":"1 55574U 23020F   26144.83241386 -.00002079  00000+0 -65999-4 0  9996","line2":"2 55574  43.0052 298.9576 0003377 246.1821 113.8677 15.27580761180512","mean_motion":15.27580761,"eccentricity":0.0003377,"inclination_deg":43.0052,"raan_deg":298.9576,"arg_perigee_deg":246.1821,"mean_anomaly_deg":113.8677,"bstar":-6.5999e-5,"rev_number":18051,"period_min":94.266701752471,"perigee_km":480.72979555772,"apogee_km":485.36383910794,"semimajor_km":6861.1838173328,"source":"CELESTRAK","updated_at":"2026-05-25T13:38:17.835404Z"}}}